CW1923 Weather Reports


Display with metric or nautical units.
time (UTC)temp
F
wind
direction
speed
MPH
gust
MPH
rain 1hr
in
rain 24hr
in
rain mn
in
humidity
%
barometer
mb
20260903042922 67 280 4.0 14.0 0.00 0.00 0.00 77 1017.6
20260903042422 67 303 4.0 14.0 0.00 0.00 0.00 75 1017.6
20260903041920 67 339 4.0 12.0 0.00 0.00 0.00 75 1017.7
20260903041420 67 301 4.0 20.0 0.00 0.00 0.00 74 1017.7
20260903040421 67 176 5.0 14.0 0.00 0.00 0.00 74 1017.9
20260903035919 67 206 4.0 16.0 0.00 0.00 0.00 74 1017.9
20260903035416 68 263 4.0 16.0 0.00 0.00 0.00 75 1017.9
20260903034416 68 83 5.0 16.0 0.00 0.00 0.00 75 1018.0
20260903033409 68 308 5.0 18.0 0.00 0.00 0.00 75 1017.8
20260903032406 68 345 5.0 14.0 0.00 0.00 0.00 74 1017.8
20260903031906 68 160 4.0 12.0 0.00 0.00 0.00 73 1017.9
20260903031407 68 325 5.0 16.0 0.00 0.00 0.00 73 1018.1
20260903030907 68 289 5.0 16.0 0.00 0.00 0.00 73 1017.9
20260903030405 67 309 4.0 14.0 0.00 0.00 0.00 73 1018.1
20260903025906 67 226 4.0 12.0 0.00 0.00 0.00 74 1018.2
20260903025403 66 328 2.0 12.0 0.00 0.00 0.00 73 1018.2
20260903024904 66 241 2.0 5.0 0.00 0.00 0.00 74 1018.2
20260903024407 66 255 2.0 7.0 0.00 0.00 0.00 74 1018.3
20260903023908 66 277 2.0 7.0 0.00 0.00 0.00 74 1018.3
20260903023405 66 279 2.0 7.0 0.00 0.00 0.00 74 1018.4
20260903020901 65 189 2.0 7.0 0.00 0.00 0.00 75 1018.3
20260903015900 65 189 2.0 7.0 0.00 0.00 0.00 75 1018.2
20260903015354 65 190 2.0 7.0 0.00 0.00 0.00 75 1018.2
20260903014353 65 187 4.0 9.0 0.00 0.00 0.00 75 1018.3
20260903013852 65 185 4.0 9.0 0.00 0.00 0.00 75 1018.3
20260903012849 65 183 4.0 7.0 0.00 0.00 0.00 75 1018.3
20260903012351 65 180 4.0 9.0 0.00 0.00 0.00 75 1018.4
20260903011847 65 184 2.0 9.0 0.00 0.00 0.00 77 1018.5
20260903011347 65 191 2.0 9.0 0.00 0.00 0.00 77 1018.6
20260903010846 65 187 2.0 7.0 0.00 0.00 0.00 77 1018.7
20260903010347 65 186 2.0 7.0 0.00 0.00 0.00 77 1018.6
20260903005846 65 208 0.0 0.0 0.00 0.00 0.00 77 1018.6
20260903004842 66 208 0.0 2.0 0.00 0.00 0.00 75 1018.6
20260903004333 66 208 0.0 2.0 0.00 0.00 0.00 75 1018.7
20260903003836 66 208 0.0 4.0 0.00 0.00 0.00 75 1018.9
20260903003335 66 208 0.0 4.0 0.00 0.00 0.00 75 1019.0
20260903002831 66 208 2.0 4.0 0.00 0.00 0.00 75 1018.9
20260903002331 66 218 2.0 5.0 0.00 0.00 0.00 75 1018.8
20260903001833 66 210 2.0 9.0 0.00 0.00 0.00 75 1018.8
20260903001330 66 191 2.0 9.0 0.00 0.00 0.00 75 1018.9
20260903000832 66 186 2.0 9.0 0.00 0.00 0.00 75 1018.9
20260903000332 66 201 0.0 4.0 0.00 0.00 0.00 77 1019.1
20260902235335 66 201 2.0 7.0 0.00 0.00 0.00 77 1019.3
20260902234831 66 201 0.0 5.0 0.00 0.00 0.00 77 1019.5
20260902233834 66 289 2.0 7.0 0.00 0.00 0.00 77 1019.5
20260902233332 66 289 2.0 7.0 0.00 0.00 0.00 77 1019.5
20260902232834 66 209 0.0 4.0 0.00 0.00 0.00 77 1019.6
20260902232333 66 204 0.0 5.0 0.00 0.00 0.00 77 1019.7
20260902231833 66 203 2.0 5.0 0.00 0.00 0.00 78 1019.7
20260902225832 66 214 2.0 4.0 0.00 0.00 0.00 79 1019.8
20260902225330 66 214 0.0 4.0 0.00 0.00 0.00 79 1019.9
20260902224832 66 215 0.0 2.0 0.00 0.00 0.00 79 1019.9
20260902224333 66 215 0.0 4.0 0.00 0.00 0.00 79 1020.0
20260902223832 66 215 2.0 4.0 0.00 0.00 0.00 79 1020.0
20260902221825 65 193 0.0 7.0 0.00 0.00 0.00 79 1019.8
20260902221319 66 193 0.0 7.0 0.00 0.00 0.00 79 1019.8
20260902220822 66 193 0.0 4.0 0.00 0.00 0.00 79 1019.7
20260902220322 66 193 2.0 4.0 0.00 0.00 0.00 79 1019.8
20260902215819 66 193 2.0 7.0 0.00 0.00 0.00 79 1019.8
20260902215320 66 193 2.0 7.0 0.00 0.00 0.00 79 1019.7
20260902214810 66 193 2.0 7.0 0.00 0.00 0.00 79 1019.8
20260902213806 66 202 2.0 7.0 0.00 0.00 0.00 79 1019.7
20260902213307 66 202 0.0 7.0 0.00 0.00 0.00 79 1019.6
20260902212803 66 181 0.0 0.0 0.00 0.00 0.00 79 1019.8
20260902212305 66 180 0.0 0.0 0.00 0.00 0.00 79 1019.9
20260902211803 66 180 0.0 0.0 0.00 0.00 0.00 79 1019.9
20260902211304 66 180 0.0 0.0 0.00 0.00 0.00 78 1019.9
20260902210802 66 180 0.0 0.0 0.00 0.00 0.00 78 1019.9
20260902205750 66 180 0.0 0.0 0.00 0.00 0.00 78 1019.9
20260902205244 66 178 0.0 0.0 0.00 0.00 0.00 78 1020.0
20260902204734 66 178 0.0 0.0 0.00 0.00 0.00 78 1020.0
20260902204243 66 178 0.0 4.0 0.00 0.00 0.00 78 1019.8
20260902203733 66 178 0.0 4.0 0.00 0.00 0.00 78 1019.8
20260902203231 66 178 0.0 0.0 0.00 0.00 0.00 78 1020.0
20260902202731 66 178 0.0 0.0 0.00 0.00 0.00 78 1020.0
20260902202232 66 178 0.0 0.0 0.00 0.00 0.00 77 1020.0
20260902201732 66 178 0.0 0.0 0.00 0.00 0.00 77 1020.1
20260902200734 66 178 0.0 0.0 0.00 0.00 0.00 77 1020.1
20260902200233 66 178 0.0 0.0 0.00 0.00 0.00 77 1020.1
20260902195731 66 178 0.0 0.0 0.00 0.00 0.00 77 1020.1
20260902195231 66 178 0.0 0.0 0.00 0.00 0.00 77 1020.2
20260902194733 66 178 0.0 0.0 0.00 0.00 0.00 77 1020.2
20260902194235 66 178 0.0 0.0 0.00 0.00 0.00 77 1020.3
20260902193232 67 178 0.0 0.0 0.00 0.00 0.00 75 1020.3
20260902192731 67 178 0.0 0.0 0.00 0.00 0.00 75 1020.2
20260902192233 67 178 0.0 0.0 0.00 0.00 0.00 74 1020.2
20260902191733 67 178 0.0 0.0 0.00 0.00 0.00 74 1020.2
20260902191234 67 178 0.0 0.0 0.00 0.00 0.00 74 1020.3
20260902190733 67 178 0.0 0.0 0.00 0.00 0.00 73 1020.3
20260902190233 67 178 0.0 0.0 0.00 0.00 0.00 73 1020.2
20260902185732 68 178 0.0 0.0 0.00 0.00 0.00 73 1020.1
20260902184732 68 178 0.0 2.0 0.00 0.00 0.00 73 1020.0
20260902183733 68 178 0.0 4.0 0.00 0.00 0.00 72 1020.0
20260902183234 69 178 0.0 4.0 0.00 0.00 0.00 72 1020.1
20260902182732 69 178 0.0 4.0 0.00 0.00 0.00 72 1020.1
20260902182232 69 178 0.0 4.0 0.00 0.00 0.00 71 1020.0
20260902181735 69 178 0.0 5.0 0.00 0.00 0.00 71 1020.0
20260902181234 69 178 0.0 5.0 0.00 0.00 0.00 71 1020.0
20260902180734 69 174 0.0 4.0 0.00 0.00 0.00 71 1020.0
20260902180232 69 174 2.0 4.0 0.00 0.00 0.00 71 1019.9
20260902175731 69 176 2.0 5.0 0.00 0.00 0.00 71 1020.0
20260902175231 69 176 0.0 5.0 0.00 0.00 0.00 71 1020.0
20260902174730 70 172 0.0 4.0 0.00 0.00 0.00 70 1020.0
20260902174230 70 185 0.0 5.0 0.00 0.00 0.00 70 1020.0
20260902173732 70 185 2.0 5.0 0.00 0.00 0.00 70 1020.0
20260902173229 70 183 2.0 5.0 0.00 0.00 0.00 70 1020.0
20260902172732 70 176 2.0 5.0 0.00 0.00 0.00 69 1020.1
20260902171716 70 176 2.0 5.0 0.00 0.00 0.00 69 1020.0
20260902170709 70 175 2.0 7.0 0.00 0.00 0.00 69 1020.0
20260902165711 70 205 2.0 4.0 0.00 0.00 0.00 69 1020.1
20260902165206 70 205 2.0 9.0 0.00 0.00 0.00 68 1020.3
20260902163706 71 176 2.0 5.0 0.00 0.00 0.00 67 1020.2
20260902163203 71 177 2.0 7.0 0.00 0.00 0.00 66 1020.2
20260902162705 71 177 2.0 11.0 0.00 0.00 0.00 66 1020.4
20260902162204 71 161 4.0 11.0 0.00 0.00 0.00 66 1020.4
20260902161704 71 280 4.0 11.0 0.00 0.00 0.00 65 1020.5
20260902161203 71 301 2.0 7.0 0.00 0.00 0.00 66 1020.6
20260902160704 71 316 2.0 7.0 0.00 0.00 0.00 66 1020.5
20260902155701 71 220 4.0 12.0 0.00 0.00 0.00 66 1020.5
20260902155158 71 174 4.0 9.0 0.00 0.00 0.00 67 1020.5
20260902154655 71 242 2.0 7.0 0.00 0.00 0.00 67 1020.6
20260902154150 70 187 4.0 9.0 0.00 0.00 0.00 68 1020.6
20260902153151 70 158 4.0 9.0 0.00 0.00 0.00 68 1020.7
20260902152648 70 183 4.0 7.0 0.00 0.00 0.00 68 1020.7
20260902152148 70 136 4.0 7.0 0.00 0.00 0.00 68 1020.8
20260902151645 70 300 2.0 9.0 0.00 0.00 0.00 68 1020.8
20260902151137 70 199 2.0 9.0 0.00 0.00 0.00 68 1020.9
20260902150637 70 317 2.0 7.0 0.00 0.00 0.00 68 1020.8
20260902150136 70 316 4.0 7.0 0.00 0.00 0.00 68 1020.8
20260902145638 70 276 4.0 11.0 0.00 0.00 0.00 69 1020.9
20260902145135 70 321 4.0 14.0 0.00 0.00 0.00 69 1021.0
20260902144633 70 316 5.0 14.0 0.00 0.00 0.00 69 1021.0
20260902144135 70 297 4.0 14.0 0.00 0.00 0.00 68 1021.0
20260902143634 70 284 4.0 11.0 0.00 0.00 0.00 68 1021.1
20260902143132 70 319 4.0 12.0 0.00 0.00 0.00 68 1021.1
20260902142630 70 323 5.0 12.0 0.00 0.00 0.00 67 1021.1
20260902142132 70 326 7.0 20.0 0.00 0.00 0.00 68 1021.1
20260902141633 70 291 7.0 20.0 0.00 0.00 0.00 67 1021.1
20260902141132 70 62 5.0 16.0 0.00 0.00 0.00 67 1021.1
20260902140630 70 289 5.0 14.0 0.00 0.00 0.00 69 1021.1
20260902140132 70 284 7.0 18.0 0.00 0.00 0.00 69 1021.0
20260902135131 70 285 7.0 18.0 0.00 0.00 0.00 68 1021.1
20260902134630 70 297 5.0 18.0 0.00 0.00 0.00 68 1021.1
20260902133631 70 287 7.0 22.0 0.00 0.00 0.00 67 1021.1
20260902132630 71 264 7.0 23.0 0.00 0.00 0.00 66 1021.0
20260902131630 71 325 5.0 18.0 0.00 0.00 0.00 66 1021.0
20260902131132 71 293 5.0 18.0 0.00 0.00 0.00 66 1020.9
20260902130631 72 233 5.0 18.0 0.00 0.00 0.00 65 1020.8
20260902130132 72 336 4.0 12.0 0.00 0.00 0.00 64 1020.8
20260902125630 73 310 5.0 14.0 0.00 0.00 0.00 63 1020.8
20260902125132 73 288 4.0 12.0 0.00 0.00 0.00 63 1020.9
20260902124631 73 288 4.0 11.0 0.00 0.00 0.00 63 1020.9
20260902123632 72 168 5.0 14.0 0.00 0.00 0.00 65 1021.0
20260902123132 72 277 5.0 16.0 0.00 0.00 0.00 64 1020.9
20260902122636 73 309 5.0 16.0 0.00 0.00 0.00 65 1020.9
20260902122133 71 174 5.0 16.0 0.00 0.00 0.00 66 1020.9
20260902121632 71 278 5.0 16.0 0.00 0.00 0.00 65 1021.0
20260902121131 72 301 4.0 12.0 0.00 0.00 0.00 65 1021.0
20260902120633 72 250 4.0 11.0 0.00 0.00 0.00 65 1020.9
20260902120133 72 279 5.0 14.0 0.00 0.00 0.00 64 1020.9
20260902115632 72 308 5.0 14.0 0.00 0.00 0.00 65 1021.0
20260902115132 72 304 5.0 14.0 0.00 0.00 0.00 66 1021.0
20260902114635 72 283 4.0 12.0 0.00 0.00 0.00 67 1020.9
20260902114132 71 336 4.0 12.0 0.00 0.00 0.00 68 1020.9
20260902113634 71 315 4.0 9.0 0.00 0.00 0.00 68 1021.0
20260902113133 71 55 5.0 14.0 0.00 0.00 0.00 68 1020.9
20260902112633 71 305 5.0 14.0 0.00 0.00 0.00 68 1021.0
20260902111635 71 305 5.0 16.0 0.00 0.00 0.00 68 1021.1
20260902111133 71 307 4.0 16.0 0.00 0.00 0.00 66 1021.1
20260902105626 72 268 5.0 12.0 0.00 0.00 0.00 69 1021.2
20260902104623 71 282 5.0 14.0 0.00 0.00 0.00 68 1021.1
20260902104125 71 141 5.0 14.0 0.00 0.00 0.00 68 1021.2
20260902103624 71 266 4.0 14.0 0.00 0.00 0.00 69 1021.2
20260902103124 71 289 5.0 22.0 0.00 0.00 0.00 71 1021.3
20260902102124 70 299 7.0 23.0 0.00 0.00 0.00 71 1021.3
20260902101623 71 232 5.0 16.0 0.00 0.00 0.00 71 1021.2
20260902101124 71 278 5.0 16.0 0.00 0.00 0.00 72 1021.2
20260902100620 71 295 5.0 14.0 0.00 0.00 0.00 72 1021.3
20260902100121 70 287 5.0 16.0 0.00 0.00 0.00 72 1021.1
20260902095622 70 295 5.0 16.0 0.00 0.00 0.00 72 1021.3
20260902095120 70 301 5.0 14.0 0.00 0.00 0.00 73 1021.3
20260902094122 70 270 4.0 12.0 0.00 0.00 0.00 74 1021.3
20260902093616 69 285 5.0 12.0 0.00 0.00 0.00 74 1021.3
20260902093115 69 282 5.0 14.0 0.00 0.00 0.00 74 1021.3
20260902092610 69 301 5.0 16.0 0.00 0.00 0.00 77 1021.3
20260902092109 69 353 7.0 22.0 0.00 0.00 0.00 77 1021.4
20260902091612 68 297 7.0 22.0 0.00 0.00 0.00 77 1021.3
20260902091110 69 297 4.0 14.0 0.00 0.00 0.00 77 1021.3
20260902090608 69 315 5.0 18.0 0.00 0.00 0.00 78 1021.3
20260902090106 68 295 7.0 18.0 0.00 0.00 0.00 79 1021.3
20260902085105 68 289 5.0 18.0 0.00 0.00 0.00 79 1021.2
20260902084603 68 312 4.0 11.0 0.00 0.00 0.00 80 1021.1
20260902084105 67 281 4.0 11.0 0.00 0.00 0.00 80 1021.1
20260902083604 67 286 5.0 16.0 0.00 0.00 0.00 81 1021.2
20260902083104 67 332 5.0 16.0 0.00 0.00 0.00 81 1021.2
20260902082605 66 299 5.0 14.0 0.00 0.00 0.00 81 1021.1
20260902082103 66 205 7.0 18.0 0.00 0.00 0.00 82 1021.1
20260902081602 66 272 5.0 18.0 0.00 0.00 0.00 82 1021.0
20260902081103 65 162 4.0 14.0 0.00 0.00 0.00 83 1021.0
20260902080602 65 86 4.0 11.0 0.00 0.00 0.00 84 1020.9
20260902075603 64 278 4.0 12.0 0.00 0.00 0.00 85 1020.9
20260902075102 64 309 4.0 7.0 0.00 0.00 0.00 86 1020.9
20260902074554 63 160 4.0 9.0 0.00 0.00 0.00 86 1020.8
20260902074049 63 176 4.0 9.0 0.00 0.00 0.00 86 1020.7
20260902073551 63 195 4.0 12.0 0.00 0.00 0.00 87 1020.7
20260902072038 62 169 2.0 5.0 0.00 0.00 0.00 88 1020.8
20260902071038 62 171 2.0 7.0 0.00 0.00 0.00 88 1020.6
20260902070534 61 165 2.0 7.0 0.00 0.00 0.00 88 1020.5
20260902070034 61 145 2.0 9.0 0.00 0.00 0.00 88 1020.4
20260902065531 61 146 2.0 9.0 0.00 0.00 0.00 88 1020.6
20260902065033 61 183 0.0 5.0 0.00 0.00 0.00 89 1020.7
20260902063530 59 12 0.0 5.0 0.00 0.00 0.00 93 1020.7
20260902063031 59 357 0.0 5.0 0.00 0.00 0.00 94 1020.7
20260902062532 58 93 0.0 4.0 0.00 0.00 0.00 94 1020.7
20260902062028 58 93 0.0 4.0 0.00 0.00 0.00 94 1020.7
20260902061525 57 83 0.0 5.0 0.00 0.00 0.00 94 1020.7
20260902060519 56 87 0.0 5.0 0.00 0.00 0.00 94 1020.7
20260902060020 56 77 0.0 0.0 0.00 0.00 0.00 94 1020.6
20260902055515 56 70 0.0 0.0 0.00 0.00 0.00 94 1020.7
20260902055006 56 69 0.0 0.0 0.00 0.00 0.00 94 1020.8
20260902054504 56 60 0.0 0.0 0.00 0.00 0.00 94 1020.7
20260902053504 55 60 0.0 0.0 0.00 0.00 0.00 93 1020.6
20260902053007 55 60 0.0 0.0 0.00 0.00 0.00 93 1020.4
20260902052456 55 60 0.0 0.0 0.00 0.00 0.00 93 1020.5
20260902051441 55 60 0.0 0.0 0.00 0.00 0.00 93 1020.3
20260902050437 55 60 0.0 0.0 0.00 0.00 0.00 93 1020.2
20260902045933 55 60 0.0 0.0 0.00 0.00 0.00 93 1020.2
20260902045432 55 60 0.0 0.0 0.00 0.00 0.00 93 1020.2
20260902044934 55 60 0.0 0.0 0.00 0.00 0.00 93 1020.2
20260902043934 56 60 0.0 0.0 0.00 0.00 0.00 93 1020.3
20260902043432 56 60 0.0 0.0 0.00 0.00 0.00 93 1020.3